User: anonymous   Login
Location: Unspecified
(0.0000°N, 0.0000°E)
Time: 09:18:21
(UTC+02:00)
Language:

Meteor PRIRODA - Orbit

View from above orbital plane
View from above orbital plane
View from above satellite
View from above satellite

Ground track
Ground track

The orbit data is extracted from the following two-line orbital elements,

1 12585U 81065A   17083.91903494 +.00001106 +00000-0 +54179-4 0  9997
2 12585 097.4232 064.4850 0014280 341.2925 018.7783 15.20171633943658
Epoch (UTC): 24 March 2017 22:03:24
Eccentricity: 0.0014280
inclination: 97.4232°
perigee height: 495 km
apogee height: 515 km
right ascension of ascending node: 64.4850°
argument of perigee: 341.2925°
revolutions per day: 15.20171633
mean anomaly at epoch: 18.7783°
orbit number at epoch: 94365

The dashed part of the orbit path shows where the satellite is in the earth's shadow,  

DLR